Theta_e
317 317 317 317 317 316 316 316 315 315 313 312 312 312 312 312 313 313 313 314 316 317 317 317 319 320 318 309 308 321 338 336 321 315 313 311 309 309 306 307 308 307 309 313 315 315 315
317 317 317 317 317 316 316 315 315 314 314 313 312 312 311 311 312 313 313 314 316 317 316 317 319 319 313 304 312 323 324 319 314 314 313 313 310 311 308 307 307 309 310 311 313 313 313
317 317 317 317 316 316 315 315 315 314 312 312 313 312 311 311 310 312 314 316 317 316 316 318 319 321 311 308 321 322 316 315 316 316 312 314 312 310 310 307 310 309 307 310 309 313 312
316 316 316 317 316 316 315 315 315 314 313 312 312 312 312 310 310 313 316 317 316 315 317 319 320 320 308 315 318 318 318 316 317 318 317 316 315 314 312 311 309 306 307 303 308 310 310
316 316 316 316 316 315 315 315 314 313 313 313 311 311 311 311 310 314 315 315 317 317 319 320 320 315 308 316 313 318 322 320 322 321 318 317 316 311 310 306 304 305 301 303 304 310 309
316 316 316 316 316 316 315 315 313 313 312 312 313 311 310 311 310 314 315 316 318 318 320 320 318 312 313 312 316 318 321 320 317 319 316 315 312 307 307 305 298 301 301 303 304 306 308
315 315 316 316 316 315 315 315 314 313 312 312 312 311 310 310 311 314 315 319 318 316 315 311 310 308 311 317 321 316 319 317 315 314 307 310 305 302 305 306 306 304 303 303 303 306 304
315 315 315 315 315 315 315 315 314 313 312 312 311 311 310 310 313 314 319 317 320 318 311 318 317 314 315 316 312 313 319 311 310 305 308 305 302 307 306 305 304 304 304 302 304 305 304
315 315 316 315 315 315 315 315 314 313 312 311 311 312 311 311 313 316 319 317 321 321 312 311 314 314 315 317 312 310 315 312 308 306 306 303 305 307 306 304 302 304 303 303 302 304 305
315 315 316 315 314 314 315 314 314 313 313 312 312 312 312 313 310 318 315 318 320 319 306 306 310 313 315 316 310 317 316 312 309 305 306 305 308 305 306 305 307 301 306 306 303 302 299
315 315 315 314 314 314 314 314 314 314 313 312 312 311 312 310 318 316 321 320 320 319 293 309 312 320 316 312 312 310 315 312 307 306 306 304 305 305 305 307 309 305 308 307 305 304 303
315 315 314 314 314 314 313 313 313 314 313 313 312 311 312 314 320 321 320 319 320 304 293 306 311 309 309 311 310 311 310 314 313 307 308 307 311 309 308 308 309 308 307 306 305 305 298
314 314 314 314 314 313 313 313 313 313 313 312 311 311 313 315 316 320 320 318 304 296 308 304 305 309 308 307 307 308 307 306 304 300 301 305 306 309 307 306 308 308 305 297 295 296 295
313 314 314 314 313 313 313 312 312 312 312 311 310 311 312 317 321 320 319 310 297 299 304 308 307 307 305 307 307 306 305 304 307 306 304 300 298 305 306 306 305 306 306 299 292 294 297
313 313 314 314 313 313 313 312 312 312 311 309 309 319 317 317 316 316 313 302 301 303 305 304 307 304 304 306 306 306 305 305 306 307 303 302 300 305 304 306 306 307 303 309 302 303 299
313 313 313 313 313 313 313 313 313 312 311 309 316 317 317 319 319 315 309 300 303 306 305 306 302 305 303 305 304 305 305 305 303 303 306 306 300 303 303 304 305 306 308 301 303 294 293
312 313 313 313 313 313 313 313 313 312 309 308 318 314 317 320 321 314 303 304 304 306 306 304 303 303 304 303 304 305 304 301 300 302 305 306 305 302 302 301 302 303 303 304 304 302 296
312 312 313 313 313 313 313 312 312 311 307 307 319 309 320 321 308 311 305 305 299 304 306 305 306 304 303 303 303 302 301 300 300 301 301 306 306 301 301 300 302 301 302 303 299 299 301
312 312 312 313 313 313 312 312 312 310 308 317 317 313 321 319 303 304 307 302 303 303 303 303 303 304 305 302 301 300 299 298 301 301 303 305 302 298 296 299 300 299 299 300 302 303 299
311 312 312 313 313 312 312 312 311 309 309 317 316 307 312 316 312 308 305 303 301 303 302 303 302 304 302 300 302 301 298 299 302 303 301 304 302 300 296 297 300 296 296 297 300 298 299
311 312 312 312 312 313 312 312 311 308 308 316 313 307 307 306 304 306 306 302 299 299 303 304 302 300 299 298 299 298 299 298 302 302 301 304 298 297 294 294 295 294 294 295 296 297 296
311 311 312 312 312 313 312 312 311 308 308 317 311 311 308 305 304 304 301 300 298 298 299 298 298 299 300 298 298 297 298 299 299 301 300 300 294 296 290 292 292 290 292 293 293 294 294
310 311 311 312 312 312 312 312 311 308 311 314 314 313 313 302 304 303 300 298 298 301 300 300 299 299 298 298 301 302 303 302 302 300 299 299 296 294 289 291 292 288 289 290 290 293 293
310 311 311 311 312 312 313 312 312 309 310 315 312 313 308 300 302 300 300 301 299 299 298 300 302 300 301 304 304 304 303 302 302 301 303 299 298 296 292 292 284 290 294 293 291 291 292
310 311 311 311 312 312 313 313 313 312 310 314 314 313 307 300 303 301 301 301 302 302 299 299 302 304 306 303 299 296 296 297 297 299 300 302 299 293 290 289 290 289 291 292 292 289 292
310 310 311 311 311 312 313 313 313 312 311 315 314 317 311 303 300 302 301 302 299 300 301 300 306 309 306 301 297 290 289 291 291 294 300 300 302 296 292 284 283 292 295 297 296 289 294
309 310 310 311 311 313 313 313 313 313 312 314 314 324 309 301 304 304 300 299 303 301 300 302 303 303 307 298 293 292 290 295 289 289 291 295 295 292 291 291 290 294 296 297 287 289 296
308 309 310 310 311 312 313 314 313 313 312 313 313 320 310 303 305 306 306 302 302 302 298 303 302 303 301 295 294 296 293 294 293 293 292 291 291 293 293 289 282 297 295 290 296 299 297
308 308 309 310 310 311 312 313 314 312 312 313 310 316 315 307 306 311 311 310 308 306 304 307 303 303 303 299 301 300 296 297 293 290 296 291 292 291 289 289 297 299 298 300 301 298 298
Wind_Speed
11 11 11 10 11 11 11 10 10 9 8 8 8 8 7 7 6 6 7 6 6 6 5 5 6 6 6 8 3 6 2 13 13 9 11 11 12 12 12 10 10 14 8 6 13 21 19
12 11 11 11 11 11 11 10 10 10 10 8 8 7 7 6 6 6 6 6 6 5 4 5 5 7 7 7 3 2 10 15 13 13 8 8 7 6 6 8 14 13 11 10 15 14 13
12 12 11 12 12 12 12 11 11 10 9 10 8 6 6 6 5 6 5 5 4 4 4 4 5 6 7 5 3 7 10 5 12 6 8 6 5 9 7 8 4 9 16 17 5 11 17
12 13 13 13 12 12 12 12 12 11 10 9 8 7 6 5 5 6 6 2 3 4 4 4 5 6 6 3 4 6 8 7 8 4 1 5 5 3 7 3 8 13 15 14 13 7 2
14 14 13 13 12 13 13 12 13 12 11 9 8 7 6 4 4 5 4 2 3 4 3 5 7 6 2 6 7 12 11 8 9 6 5 6 7 4 8 13 12 10 14 18 7 6 3
15 15 14 14 13 13 13 14 14 13 12 11 9 7 6 4 3 5 2 3 6 8 6 6 4 7 6 4 8 7 10 8 8 10 8 8 9 10 11 12 13 15 9 5 5 11 16
16 16 16 16 15 15 14 14 15 13 12 11 9 7 5 4 4 4 5 6 7 7 7 7 3 5 2 2 6 10 11 13 9 11 11 11 11 14 15 14 9 7 9 13 14 11 11
16 16 16 16 16 16 15 14 15 14 12 11 9 7 4 4 4 3 7 5 5 6 7 11 11 8 8 3 7 11 11 14 11 14 7 9 14 9 4 5 10 9 12 17 11 7 10
15 16 16 16 16 15 15 14 14 14 13 11 9 6 4 4 3 5 5 3 2 4 7 5 5 7 6 10 9 15 18 17 14 13 14 14 1 7 9 10 12 14 18 18 13 12 14
15 16 17 17 17 17 16 16 15 15 14 11 8 5 3 4 4 4 5 2 5 5 6 9 7 6 8 7 8 2 15 14 9 14 11 11 9 9 10 12 14 15 17 17 23 17 9
17 17 17 17 17 17 17 16 16 14 12 10 7 3 5 10 4 5 6 5 2 6 6 4 7 4 6 12 12 7 7 11 12 9 8 9 13 14 11 12 18 14 17 21 23 18 6
18 18 18 18 18 17 16 16 16 14 11 9 6 2 6 6 4 3 6 2 6 8 3 5 6 11 12 11 6 7 11 8 5 7 11 9 1 6 9 4 10 2 15 14 11 12 11
18 19 19 19 19 18 17 16 15 15 12 10 6 5 8 4 2 4 2 5 7 7 2 4 2 8 15 10 7 9 13 15 11 12 14 13 14 5 5 6 9 13 20 9 10 11 11
19 19 20 19 19 19 18 17 16 15 12 10 2 8 8 6 3 6 5 7 6 3 3 3 2 6 14 9 8 9 10 12 9 10 4 9 11 11 2 7 8 15 22 13 15 14 13
19 20 21 21 21 21 19 18 16 13 11 5 6 5 3 3 5 5 7 7 3 5 6 9 7 9 11 8 7 12 14 13 5 7 8 6 4 6 2 2 5 16 17 13 15 6 10
20 20 21 21 21 21 20 19 17 14 9 2 3 3 4 4 4 6 7 5 2 3 7 6 7 3 8 13 11 11 13 2 5 2 3 0 6 4 5 4 4 9 2 9 11 19 21
20 21 21 22 22 21 21 20 17 14 10 5 4 4 5 2 4 6 7 0 1 3 5 5 4 5 3 4 9 10 4 6 1 4 4 3 6 7 5 4 7 6 11 8 8 7 13
20 21 21 22 23 22 22 21 19 13 6 4 3 3 3 4 6 2 5 1 1 1 2 2 4 4 3 4 4 3 3 5 2 3 4 3 5 10 2 4 3 3 5 7 9 13 8
21 22 22 22 23 22 22 22 19 13 4 4 0 4 3 4 4 5 3 3 4 3 4 4 2 4 4 3 5 3 0 3 2 3 2 3 5 9 7 7 7 7 1 4 6 6 16
21 22 23 23 23 24 24 23 21 14 3 5 3 4 4 1 3 6 1 1 3 7 4 3 4 2 3 4 2 3 2 1 1 3 4 4 3 7 11 8 5 5 6 3 6 8 10
21 23 24 25 25 27 27 24 21 14 2 4 4 5 5 2 6 5 1 4 3 4 6 9 3 8 6 5 5 5 3 3 2 5 2 4 6 2 4 3 2 3 1 5 8 5 7
21 23 24 25 26 27 27 28 23 18 6 3 3 1 4 6 3 6 5 8 8 5 8 5 6 8 6 5 7 8 7 4 3 4 3 2 3 9 5 5 7 10 8 8 8 9 9
21 22 23 24 26 26 27 27 27 26 10 4 2 2 1 5 6 2 8 7 9 3 4 5 7 7 5 7 6 4 2 2 2 3 5 5 8 7 6 9 10 7 5 4 5 4 9
20 22 22 24 24 25 25 26 25 21 16 5 4 4 3 8 8 9 6 7 9 9 6 6 8 6 5 2 5 5 5 6 5 4 1 6 10 5 6 9 9 7 3 2 10 7 8
20 20 21 22 23 25 25 24 24 20 15 10 5 4 4 7 6 11 10 9 4 2 6 6 8 5 4 7 6 5 8 7 7 7 3 5 7 3 5 12 7 7 6 8 2 7 5
19 19 19 20 22 22 23 23 22 22 20 9 10 5 4 4 10 6 6 9 7 8 1 5 3 3 5 5 4 7 6 5 1 5 3 6 2 6 4 3 7 9 9 3 3 7 7
18 19 19 19 20 20 21 21 21 20 19 11 8 7 6 10 10 12 8 9 9 8 5 1 8 4 3 8 4 6 4 10 2 6 3 2 5 7 4 2 7 5 7 3 6 7 10
18 18 18 18 19 19 20 19 19 18 17 10 7 11 9 11 11 13 11 11 9 9 7 10 7 3 5 6 4 1 2 2 3 5 6 5 5 2 2 1 5 5 5 2 6 12 10
17 17 18 18 17 18 18 18 16 16 16 11 8 7 8 10 8 6 8 8 8 9 7 3 6 5 5 4 2 1 2 1 4 2 4 1 7 3 5 3 6 6 6 9 7 9 8
Wind_Direction
19 12 7 358 355 354 351 353 344 333 330 332 322 319 318 319 318 318 313 307 298 288 283 285 284 284 256 226 257 60 76 152 175 191 187 191 203 214 214 203 186 226 180 199 95 96 88
15 9 7 3 359 354 351 351 344 336 332 329 322 324 322 318 319 319 312 300 291 282 266 260 268 276 250 244 44 95 129 153 172 193 187 209 221 225 213 195 209 188 79 92 140 101 103
12 8 4 7 1 352 352 348 347 339 338 329 322 328 319 322 316 317 308 287 256 232 237 249 259 260 251 285 63 138 163 160 170 194 189 190 235 217 165 169 159 170 138 121 55 170 145
10 7 5 5 358 355 352 348 346 343 337 329 327 326 322 321 319 317 311 276 199 200 218 237 248 246 266 104 203 192 187 157 187 178 138 169 191 235 248 95 179 187 210 190 50 202 61
10 6 4 2 353 355 352 346 351 346 339 333 330 325 320 322 316 312 314 160 172 187 212 215 227 252 192 132 210 202 195 170 158 167 114 143 206 224 182 201 192 201 202 209 118 20 119
7 3 1 1 355 350 351 348 350 349 344 340 331 326 320 310 290 303 275 239 162 184 201 213 254 242 208 156 147 166 185 196 172 167 169 204 201 203 217 214 212 193 184 48 94 66 96
3 359 359 357 356 350 350 348 351 351 347 343 337 326 313 285 262 285 208 190 199 180 209 258 80 311 94 106 174 190 177 189 172 196 203 204 218 215 208 218 290 307 223 130 120 117 83
358 356 355 353 354 349 348 346 351 352 350 345 338 325 297 248 266 263 257 265 32 6 287 217 250 256 258 270 184 171 184 197 203 209 201 189 230 226 254 230 222 203 154 142 126 139 130
354 351 349 347 347 347 348 345 348 351 348 345 338 320 269 236 225 220 250 278 33 313 262 161 199 235 202 199 202 169 192 204 205 212 210 240 174 150 199 187 204 195 192 174 145 145 140
353 350 348 346 346 347 346 346 345 349 346 344 337 317 250 189 228 147 218 153 251 276 263 135 189 179 177 220 188 150 207 194 206 217 211 235 188 217 209 204 214 198 221 172 153 165 182
352 349 346 346 345 345 342 341 341 340 337 338 334 306 220 235 346 224 72 295 245 209 248 122 135 87 165 212 124 157 179 210 214 199 218 198 205 208 228 232 196 237 188 179 182 211 163
351 346 345 345 346 343 341 338 336 336 334 330 325 247 177 206 236 322 312 203 216 229 188 140 137 176 179 200 162 129 186 230 305 206 220 272 28 257 265 81 233 270 161 167 199 226 232
348 345 346 346 345 342 340 337 336 335 333 329 303 204 208 303 38 348 286 212 238 257 109 118 149 189 201 185 170 202 183 196 207 206 212 204 226 195 252 154 156 164 158 166 203 209 241
348 346 347 345 343 340 340 338 338 336 337 337 201 168 201 276 312 323 232 236 255 49 359 24 303 247 218 181 194 185 201 192 220 258 267 228 181 204 139 264 209 199 204 244 214 218 208
348 348 348 346 345 340 340 338 337 338 346 15 163 182 211 169 241 245 247 236 358 16 357 336 290 233 199 194 238 203 217 230 169 214 264 208 195 144 113 12 263 196 225 276 289 253 282
349 350 349 346 342 340 339 338 337 339 343 251 257 212 92 339 194 232 246 272 295 349 332 319 304 335 257 200 213 209 189 130 173 225 260 81 258 203 130 240 175 264 7 225 219 257 250
349 350 348 345 341 340 339 338 339 340 340 196 238 204 58 127 241 227 244 215 302 81 347 308 323 298 344 318 274 235 249 108 221 160 228 281 252 140 198 233 320 200 219 231 295 309 278
348 349 348 345 341 340 341 339 339 342 1 211 281 178 80 281 211 265 252 25 344 331 345 290 285 311 320 335 304 274 290 24 14 299 227 112 280 252 9 82 4 299 302 289 266 229 240
350 349 350 347 342 343 345 341 340 341 316 302 48 95 109 276 235 198 129 124 39 342 30 348 318 353 347 328 282 292 64 60 9 250 302 160 205 215 194 207 203 243 176 282 267 271 273
352 351 351 349 348 349 350 347 346 351 325 271 250 153 124 103 27 325 253 50 149 38 69 348 343 273 279 260 262 296 215 86 51 80 38 273 215 280 289 9 348 178 194 238 267 269 265
353 352 351 353 354 354 354 353 353 357 295 276 343 63 356 88 61 45 32 0 2 15 4 17 162 20 332 284 268 259 273 169 146 139 76 277 224 173 50 58 95 109 199 210 229 338 281
356 352 353 357 357 356 357 358 3 1 318 59 354 350 81 71 23 76 39 40 24 36 1 31 11 357 353 322 338 311 326 249 264 170 182 198 161 146 92 109 118 100 77 82 90 85 91
357 352 355 360 358 356 360 4 2 3 332 59 66 107 329 13 55 73 41 35 35 340 87 30 337 309 1 29 17 359 336 353 350 255 181 186 162 202 150 153 147 136 62 87 102 121 132
358 353 356 360 359 0 1 4 7 9 5 47 30 308 61 70 64 60 50 31 25 15 358 13 349 314 106 294 268 282 106 95 93 88 290 193 193 214 136 176 223 78 105 83 97 83 83
358 355 357 359 360 3 3 4 5 11 358 52 31 2 69 83 79 51 36 6 17 36 21 355 20 4 272 283 253 229 204 222 105 47 69 264 223 160 194 209 101 147 168 158 226 124 110
359 355 357 0 0 2 2 3 6 6 4 47 42 347 32 69 38 355 349 27 353 354 51 35 64 348 273 280 252 269 281 357 320 151 87 143 245 243 195 190 206 91 132 131 213 163 156
357 355 356 1 359 359 2 4 7 6 2 43 47 357 84 89 48 28 32 1 359 343 290 40 356 277 257 264 297 327 336 332 296 316 343 209 242 259 178 187 100 106 128 172 224 87 143
354 353 356 359 357 358 360 4 7 6 0 38 48 10 65 86 69 51 43 24 358 360 331 9 264 162 283 311 342 282 305 256 270 39 343 346 315 45 291 226 124 132 146 320 81 121 140
352 352 356 355 354 357 357 356 4 6 5 350 69 50 40 58 78 56 59 35 360 325 309 307 356 0 10 306 346 10 210 270 333 115 59 159 24 37 30 63 99 87 100 113 128 135 143